Location: Cartersville (historical)
(42.9944°N, 93.0869°W)
Time: 20:04:31
(UTC+00:00)

ARIANE 6 FM1 Upper Stage - Visible Passes

Search period start: 09 November 2025 00:00
Search period end: 19 November 2025 00:00
Orbit: 523 x 612 km, 62.0° (Epoch: 08 November)

Date Brightness Start Highest point End Pass type
(mag) Time Alt. Az. Time Alt. Az. Time Alt. Az.
09 Nov 4.1 00:10:07 10° WSW 00:13:43 31° NW 00:17:17 10° NNE visible
10 Nov 4.6 00:11:21 10° W 00:14:34 23° NW 00:17:47 10° NNE visible
11 Nov 4.9 00:12:44 10° W 00:15:27 17° NW 00:18:10 10° N visible
12 Nov 5.1 00:14:20 10° WNW 00:16:23 13° NNW 00:18:24 10° N visible
13 Nov 5.3 00:16:29 10° NW 00:17:20 11° NNW 00:18:12 10° NNW visible
